HAWK-6C

Last updated on Tue Sep 22 2026 00:03:52 GMT+0000 (Coordinated Universal Time)

1 55326U 23011C 26264.09711404 .00002363 00000+0 10459-3 0 9999 2 55326 40.4963 149.1697 0003984 318.8855 41.1654 15.23648409202487
UTC large
Height (km)
Speed (km/s)
/
Latitude / Longitude
Inclination (degrees)
Orbital Period (minutes)
Azimuth
Elevation
Range (km)
Doppler Factor

Next 0 passes for location: London (51.5072 / 0.1276)

No passes found over London.
HAWK-6C